[[{"header":{"parameterUnit":"m.s-1","parameterCategory":1,"la1":30.2991,"la2":30.254,"lo1":-89.0895,"lo2":-89.0444,"dy":0.0017,"dx":0.0017,"nx":28,"ny":28,"refTime":"2023-07-31T03:00:00:Z","depth":0,"parameterNumber":2,"parameterNumberName":"U-component_of_WINDS"},"data":[0,0,0,0,0,0,0,0,0,0,0,0,0,0,0,0,0,0,0,0,0,0,0,0,0,0,0,0,0,0,0,0,0,0,0,0,0,0,0,0,0,0,0,0,0,0,0,0,0,0,0,0,0,0,0,0,0,0,0.8577,0.8577,0,0.8623,0.8624,0.8624,0.8615,0.8614,0.8613,0.8612,0.8662,0.8664,0.8666,0,0,0,0,0,0,0,0,0,0,0,0,0,0.8482,0.8483,0.8577,0.8577,0.8578,0.8623,0.8624,0.8624,0.8615,0.8614,0.8613,0.8612,0.8662,0.8664,0.8667,0,0,0,0,0,0,0,0,0,0,0,0,0,0.8525,0.8484,0.8577,0.8579,0.8579,0.8623,0.8624,0.8625,0.8615,0.8614,0.8612,0.8611,0.8661,0.8664,0.8667,0.8713,0,0,0.8677,0.8678,0,0,0,0,0,0,0,0,0.8523,0.8529,0.8578,0.8579,0.8579,0.8612,0.8608,0.8654,0.8615,0.8602,0.8612,0.8611,0.8647,0.8651,0.8663,0.8715,0.8717,0.8677,0.8679,0.868,0.8681,0,0,0,0,0,0,0,0.852,0.8526,0.8595,0.8578,0.8579,0.8578,0.8582,0.8617,0.8631,0.8603,0.8602,0.8607,0.8647,0.8659,0.8664,0.8718,0.8677,0.868,0.8682,0.8683,0.8809,0.8811,0,0,0,0,0,0,0.8516,0.8524,0.8594,0.8597,0.8547,0.858,0.8586,0.8603,0.863,0.8633,0.8609,0.8607,0.8655,0.866,0.8665,0.872,0.868,0.8683,0.8685,0.8808,0.8809,0.8811,0,0,0,0,0,0,0.8514,0.8522,0.8592,0.856,0.8569,0.8583,0.8603,0.8604,0.8617,0.8635,0.8637,0.8619,0.8654,0.8661,0.8701,0.8722,0.8685,0.8688,0.8806,0.8808,0.881,0.8831,0,0,0,0,0,0,0.8511,0.8521,0.8539,0.8561,0.8571,0.8626,0.8604,0.8606,0.8622,0.862,0.8645,0.8648,0.8653,0.8696,0.8704,0.8726,0.869,0.8804,0.8807,0.881,0.8828,0.8833,0.8838,0,0,0,0,0,0.8507,0.8543,0.8539,0.8548,0.8592,0.8627,0.8633,0.8638,0.8624,0.8642,0.8653,0.8647,0.8718,0.87,0.8709,0.8732,0.8803,0.8806,0.8809,0.8826,0.8832,0.8837,0,0,0,0,0,0,0.8525,0.8546,0.8542,0.8586,0.8605,0.8625,0.8648,0.8644,0.8668,0.8665,0.8671,0.8676,0.8717,0.8728,0.8708,0.8777,0.8759,0.8764,0.8768,0.8774,0.8779,0.8776,0.8693,0,0,0,0,0,0.8533,0.8559,0.8577,0.8614,0.8623,0.8634,0.8649,0.8651,0.8671,0.8679,0.8693,0.8713,0.874,0.8758,0.8783,0.8829,0.8835,0.885,0.8854,0.8858,0.8863,0.8887,0.8894,0.8822,0.8822,0.8821,0,0,0.8552,0.8567,0.8583,0.8618,0.8632,0.8659,0.8641,0.867,0.8691,0.8684,0.8722,0.8733,0.8756,0.8798,0.8818,0.8809,0.8884,0.8862,0.8865,0.8868,0.8891,0.8898,0.8904,0.8824,0.8823,0.8823,0,0,0.86,0.8614,0.8646,0.866,0.8682,0.8689,0.8696,0.8717,0.8724,0.8762,0.8757,0.8781,0.8827,0.8843,0.8858,0.8909,0.8905,0.8918,0.8943,0.8966,0.8972,0.8977,0.8996,0.9002,0.8922,0.8922,0.8922,0,0.8621,0.8661,0.8663,0.8693,0.8708,0.8701,0.8733,0.8748,0.8777,0.8788,0.8777,0.8834,0.8849,0.8895,0.8908,0.8919,0.8928,0.8915,0.8971,0.8976,0.8981,0.8999,0.9006,0.8923,0.8923,0.8923,0.8923,0,0.8685,0.8713,0.8736,0.8763,0.8781,0.8812,0.8819,0.8836,0.8836,0.8844,0.8882,0.8899,0.8928,0.8939,0.8939,0.8985,0.8979,0.897,0.8951,0.8989,0.9006,0.9013,0.8925,0.8925,0.8924,0.8924,0,0,0.8747,0.8773,0.8782,0.8794,0.8816,0.8838,0.8868,0.8895,0.891,0.893,0.8956,0.8994,0.8985,0.9001,0.9003,0.9024,0.9063,0.9012,0.9013,0.9021,0.9115,0.9122,0.913,0.906,0.9062,0.9063,0.9113,0,0.8797,0.885,0.8852,0.89,0.8925,0.8918,0.8945,0.8962,0.8969,0.8992,0.9001,0.9028,0.9014,0.9023,0.9044,0.9054,0.9082,0.9051,0.9085,0.9086,0.908,0.9138,0.9146,0.9193,0.9119,0.912,0.9121,0,0.8863,0.8884,0.8934,0.8951,0.8962,0.8986,0.901,0.9031,0.905,0.9054,0.9071,0.907,0.9101,0.9081,0.9124,0.9102,0.9116,0.9123,0.9125,0.9129,0.9107,0.9144,0.9208,0.9215,0.9132,0.9131,0.913,0,0.8903,0.8943,0.8978,0.8989,0.901,0.9027,0.9037,0.9054,0.9069,0.909,0.9101,0.9125,0.9139,0.9159,0.9164,0.9149,0.9207,0.9187,0.9212,0.9212,0.9225,0.9225,0.9292,0.9233,0.9233,0.9233,0.9233,0,0.8959,0.8991,0.8996,0.9018,0.9053,0.9054,0.9089,0.9097,0.9112,0.9136,0.9132,0.9154,0.9159,0.9183,0.9187,0.9222,0.9229,0.9233,0.9234,0.9234,0.9233,0.9244,0.9241,0.9235,0.9235,0.9234,0.9234,0,0.9011,0.9016,0.9054,0.907,0.9075,0.9099,0.9114,0.9135,0.9141,0.9171,0.9178,0.9188,0.9215,0.9222,0.9255,0.9258,0.9299,0.9297,0.9292,0.9292,0.9317,0.9314,0.9394,0.9405,0.9338,0.9339,0.9339,0,0.9047,0.907,0.9088,0.9103,0.9113,0.9137,0.9152,0.9155,0.9171,0.9193,0.9211,0.9237,0.9259,0.9302,0.9313,0.9338,0.9337,0.9363,0.9341,0.9339,0.9337,0.9336,0.9338,0.9367,0.9368,0.9369,0.9369,0,0.911,0.911,0.9132,0.9154,0.9172,0.919,0.9207,0.9219,0.9224,0.9242,0.9269,0.9285,0.9318,0.9344,0.9369,0.938,0.9376,0.9376,0.9383,0.9383,0.938,0.9382,0.9304,0.9374,0.9374,0.9373,0.9373,0.9373,0.9155,0.9175,0.919,0.9214,0.9227,0.9242,0.9262,0.927,0.9292,0.9318,0.9318,0.9347,0.9364,0.9397,0.9409,0.9432,0.9424,0.9435,0.9437,0.944,0.9442,0.9375,0.9437,0.9437,0.9436,0.9436,0.9436,0,0.9218,0.9227,0.9248,0.9271,0.929,0.9282,0.93,0.9317,0.9342,0.9358,0.9378,0.9409,0.9434,0.9446,0.9471,0.9487,0.9486,0.9494,0.9493,0.9495,0.9448,0.9439,0.9494,0.9494,0.9494,0.9494,0.9494,0.9494,0.9253,0.9286,0.9288,0.9328,0.9337,0.9364,0.9375,0.939,0.9402,0.9436,0.9456,0.9463,0.9477,0.9503,0.9526,0.9528,0.9538,0.9547,0.9549,0.9505,0.9499,0.9493,0.9485,0.9549,0.9549,0.9595,0.9595,0.9595]},{"header":{"parameterUnit":"m.s-1","parameterCategory":1,"la1":30.2991,"la2":30.254,"lo1":-89.0895,"lo2":-89.0444,"dy":0.0017,"dx":0.0017,"nx":28,"ny":28,"refTime":"2023-07-31T03:00:00:Z","depth":0,"parameterNumber":3,"parameterNumberName":"V-component_of_WINDS"},"data":[0,0,0,0,0,0,0,0,0,0,0,0,0,0,0,0,0,0,0,0,0,0,0,0,0,0,0,0,0,0,0,0,0,0,0,0,0,0,0,0,0,0,0,0,0,0,0,0,0,0,0,0,0,0,0,0,0,0,-0.5444,-0.5445,0,-0.5497,-0.5497,-0.5498,-0.5539,-0.554,-0.554,-0.554,-0.5594,-0.5595,-0.5596,0,0,0,0,0,0,0,0,0,0,0,0,0,-0.538,-0.5381,-0.5444,-0.5445,-0.5445,-0.5496,-0.5497,-0.5498,-0.5539,-0.554,-0.554,-0.5541,-0.5593,-0.5595,-0.5596,0,0,0,0,0,0,0,0,0,0,0,0,0,-0.5418,-0.5381,-0.5444,-0.5472,-0.5475,-0.5496,-0.5497,-0.5498,-0.5539,-0.554,-0.554,-0.5541,-0.5593,-0.5594,-0.5596,-0.5593,0,0,-0.5601,-0.5601,0,0,0,0,0,0,0,0,-0.5415,-0.542,-0.5467,-0.547,-0.5474,-0.5512,-0.5494,-0.553,-0.5539,-0.5515,-0.554,-0.5541,-0.5566,-0.557,-0.5578,-0.5596,-0.5598,-0.5601,-0.5602,-0.5602,-0.5603,0,0,0,0,0,0,0,-0.5413,-0.5418,-0.5465,-0.5468,-0.5472,-0.5482,-0.5488,-0.5501,-0.5536,-0.5517,-0.552,-0.5526,-0.5568,-0.5577,-0.558,-0.5599,-0.5601,-0.5602,-0.5603,-0.5604,-0.5617,-0.5617,0,0,0,0,0,0,-0.5406,-0.5415,-0.5463,-0.5466,-0.5445,-0.5483,-0.549,-0.5499,-0.5536,-0.5543,-0.5525,-0.5527,-0.5574,-0.5578,-0.5582,-0.5581,-0.5602,-0.5604,-0.5605,-0.5618,-0.5617,-0.5617,0,0,0,0,0,0,-0.5404,-0.541,-0.5461,-0.5442,-0.5449,-0.5483,-0.5494,-0.55,-0.5509,-0.5542,-0.5549,-0.5528,-0.5574,-0.558,-0.559,-0.5584,-0.5605,-0.5606,-0.5619,-0.5618,-0.5617,-0.558,0,0,0,0,0,0,-0.5402,-0.5409,-0.5408,-0.5441,-0.545,-0.5468,-0.5493,-0.55,-0.5511,-0.5515,-0.5547,-0.5552,-0.5575,-0.5588,-0.5592,-0.5586,-0.5607,-0.5619,-0.5618,-0.5617,-0.5582,-0.5578,-0.5575,0,0,0,0,0,-0.54,-0.5395,-0.5408,-0.5413,-0.545,-0.5468,-0.5473,-0.5499,-0.5511,-0.551,-0.5532,-0.5551,-0.5584,-0.5588,-0.5593,-0.5588,-0.562,-0.5618,-0.5617,-0.5584,-0.5579,-0.5575,0,0,0,0,0,0,-0.536,-0.54,-0.5414,-0.5421,-0.5441,-0.5475,-0.5475,-0.5493,-0.551,-0.5513,-0.5545,-0.5552,-0.5559,-0.5575,-0.5579,-0.5588,-0.5604,-0.5604,-0.5577,-0.5573,-0.5569,-0.5565,-0.5609,0,0,0,0,0,-0.5352,-0.5363,-0.5398,-0.54,-0.541,-0.5441,-0.5449,-0.5468,-0.549,-0.5499,-0.5521,-0.5542,-0.5557,-0.5566,-0.5581,-0.5585,-0.5592,-0.5584,-0.558,-0.5577,-0.5576,-0.5579,-0.5576,-0.5612,-0.5612,-0.5612,0,0,-0.5335,-0.5359,-0.5364,-0.5393,-0.5411,-0.5422,-0.5447,-0.5458,-0.5467,-0.55,-0.5512,-0.5529,-0.5554,-0.5561,-0.5565,-0.5574,-0.5568,-0.5575,-0.5572,-0.5573,-0.5578,-0.5574,-0.5571,-0.5611,-0.5612,-0.5612,0,0,-0.5311,-0.533,-0.5334,-0.5351,-0.5378,-0.5399,-0.54,-0.5431,-0.5444,-0.5456,-0.5482,-0.5493,-0.5518,-0.5534,-0.5546,-0.5529,-0.5547,-0.5533,-0.5514,-0.5517,-0.5514,-0.5511,-0.5505,-0.5503,-0.5532,-0.5532,-0.5532,0,-0.5287,-0.5305,-0.5334,-0.5343,-0.5355,-0.5387,-0.5391,-0.5406,-0.5436,-0.5444,-0.5454,-0.5486,-0.5505,-0.5517,-0.5513,-0.5521,-0.5523,-0.5529,-0.5512,-0.551,-0.5508,-0.5503,-0.55,-0.553,-0.553,-0.5531,-0.5531,0,-0.5275,-0.5287,-0.5287,-0.5315,-0.5327,-0.5334,-0.5364,-0.5373,-0.5391,-0.541,-0.5422,-0.5447,-0.5468,-0.5472,-0.5489,-0.5486,-0.5491,-0.5506,-0.5523,-0.5502,-0.5498,-0.5496,-0.5528,-0.5528,-0.5529,-0.5529,0,0,-0.5226,-0.5271,-0.527,-0.5284,-0.5316,-0.5326,-0.5334,-0.5355,-0.5362,-0.5382,-0.539,-0.541,-0.5425,-0.5438,-0.5458,-0.546,-0.5445,-0.5475,-0.5476,-0.5469,-0.5444,-0.5432,-0.5429,-0.5458,-0.5458,-0.5458,-0.5441,0,-0.5207,-0.5224,-0.525,-0.5258,-0.527,-0.53,-0.5308,-0.5328,-0.5347,-0.5359,-0.538,-0.5394,-0.5412,-0.542,-0.5424,-0.5446,-0.5441,-0.5448,-0.5466,-0.5466,-0.5458,-0.5427,-0.5414,-0.5398,-0.544,-0.544,-0.5439,0,-0.5186,-0.5205,-0.5214,-0.5246,-0.5251,-0.5258,-0.5279,-0.5291,-0.5315,-0.5328,-0.5343,-0.5365,-0.5376,-0.5391,-0.5407,-0.5411,-0.542,-0.5432,-0.5432,-0.5434,-0.5451,-0.5428,-0.5393,-0.5391,-0.5437,-0.5437,-0.5437,0,-0.515,-0.5177,-0.5187,-0.5197,-0.5234,-0.5238,-0.5253,-0.5278,-0.5289,-0.5308,-0.5315,-0.5335,-0.5346,-0.536,-0.5387,-0.5396,-0.5399,-0.5417,-0.5411,-0.541,-0.541,-0.5409,-0.5376,-0.5416,-0.5416,-0.5416,-0.5416,0,-0.5126,-0.513,-0.5171,-0.5176,-0.5183,-0.5213,-0.5218,-0.5237,-0.5258,-0.5268,-0.5295,-0.5304,-0.5339,-0.5351,-0.5372,-0.5382,-0.5386,-0.5398,-0.5403,-0.5395,-0.5394,-0.5401,-0.5403,-0.5415,-0.5415,-0.5415,-0.5416,0,-0.5086,-0.5113,-0.5125,-0.516,-0.5168,-0.5171,-0.5201,-0.5207,-0.5228,-0.524,-0.5245,-0.5277,-0.5293,-0.5321,-0.5346,-0.536,-0.5365,-0.5375,-0.5357,-0.5361,-0.5353,-0.5353,-0.5323,-0.532,-0.5361,-0.5361,-0.5361,0,-0.5068,-0.5073,-0.5107,-0.5116,-0.5131,-0.5144,-0.5156,-0.5186,-0.5197,-0.5225,-0.5228,-0.5247,-0.5263,-0.5288,-0.5314,-0.5333,-0.5343,-0.5331,-0.5346,-0.5338,-0.5343,-0.5342,-0.5343,-0.5327,-0.5327,-0.5326,-0.5326,0,-0.5034,-0.5048,-0.5064,-0.5084,-0.5097,-0.5115,-0.5133,-0.5139,-0.5174,-0.5184,-0.5202,-0.5215,-0.524,-0.5258,-0.5281,-0.5297,-0.5317,-0.5321,-0.5321,-0.5312,-0.5302,-0.5308,-0.5348,-0.5321,-0.5322,-0.5322,-0.5322,-0.5323,-0.5006,-0.5011,-0.5036,-0.5053,-0.507,-0.5087,-0.5096,-0.5117,-0.5132,-0.5155,-0.5172,-0.5188,-0.5213,-0.5246,-0.5261,-0.5274,-0.5283,-0.5282,-0.5282,-0.5281,-0.5278,-0.53,-0.5278,-0.5278,-0.5278,-0.5278,-0.5279,0,-0.4973,-0.4991,-0.5006,-0.5032,-0.5045,-0.5063,-0.5085,-0.5095,-0.5108,-0.513,-0.5145,-0.5165,-0.5183,-0.5211,-0.5231,-0.5236,-0.5246,-0.524,-0.524,-0.5244,-0.5269,-0.5267,-0.5232,-0.5232,-0.5232,-0.5232,-0.5232,-0.5232,-0.4958,-0.4968,-0.4984,-0.5003,-0.5022,-0.5038,-0.5049,-0.5065,-0.5082,-0.5103,-0.5118,-0.5136,-0.5159,-0.5182,-0.5199,-0.5207,-0.5213,-0.5204,-0.5215,-0.5238,-0.5242,-0.5246,-0.5245,-0.5205,-0.5205,-0.5189,-0.5188,-0.5188]}]]